Location: Aragoneses
(41.0275°N, 4.3847°W)
Time: 14:40:12
(UTC+00:00)

BlueWalker 3 - Pass Details

Date: 24 February 2026
Orbit: 451 x 457 km, 53.2° (Epoch: 14 March)

Event Time Altitude Azimuth Distance (km) Brightness Sun altitude
Exits shadow 05:14:07 13° 179° (S) 1,415 4.2 -20.6°
Maximum altitude 05:16:27 23° 131° (SE) 1,009 3.9 -20.2°
Drops below altitude 10° 05:19:21 10° 77° (ENE) 1,596 5.7 -19.6°
Sets 05:21:46 0° 62° (ENE) 2,473 6.7 -19.2°
